This demonstration page uses our WeatherBlox Daily Observations layout. Learn more.

Left ArrowRight Arrow

Hourly Observations for November 13, 2020

Temp ( °F °C ) Dew Point ( °F °C ) Humidity (%) Winds ( mph kmh ) Pressure ( in mb ) Visibility ( mi km ) Precip ( " mm )
12:15 am 00:15 Clear 25 -4 21 -6.3 84 84 SSW 7 11 30.36 1028 10 16 N/A
12:35 am 00:35 Clear 25 -3.7 21 -6.3 82 82 SSW 6 9 30.36 1028 10 16 N/A
12:55 am 00:55 Clear 25 -3.7 20 -6.4 82 82 SSW 7 11 30.35 1028 10 16 N/A
1:15 am 01:15 Clear 26 -3.3 21 -6 82 82 SSW 7 11 30.34 1027 10 16 N/A
1:35 am 01:35 Clear 26 -3.5 20 -6.4 81 81 SSW 7 11 30.34 1027 10 16 N/A
1:55 am 01:55 Clear 26 -3.2 21 -6.1 81 81 SSW 6 9 30.33 1027 10 16 N/A
2:15 am 02:15 Clear 26 -3.5 20 -6.4 81 81 SSW 5 7 30.34 1027 10 16 N/A
2:35 am 02:35 Clear 26 -3.6 21 -6.3 82 82 SSW 7 11 30.34 1027 10 16 N/A
2:55 am 02:55 Clear 25 -3.7 20 -6.4 82 82 SSW 7 11 30.33 1027 10 16 N/A
3:15 am 03:15 Clear 26 -3.6 20 -6.5 81 81 SSW 7 11 30.32 1027 10 16 N/A
3:35 am 03:35 Clear 26 -3.6 21 -6.2 82 82 SSW 9 15 30.32 1027 10 16 N/A
3:55 am 03:55 Clear 25 -4.1 20 -6.6 83 83 SSW 12 19 30.33 1027 10 16 N/A
4:15 am 04:15 Clear 25 -3.7 20 -6.5 81 81 SSW 10 17 30.31 1026 10 16 N/A
4:35 am 04:35 Clear 25 -4 20 -6.6 82 82 SSW 10 17 30.31 1027 10 16 N/A
4:55 am 04:55 Clear 24 -4.2 20 -6.7 83 83 SSW 6 9 30.31 1026 10 16 N/A
5:15 am 05:15 Clear 24 -4.5 19 -7 83 83 SW 8 13 30.30 1026 10 16 N/A
5:35 am 05:35 Clear 24 -4.6 19 -7 84 84 SW 9 15 30.30 1026 10 16 N/A
5:55 am 05:55 Clear 23 -4.8 19 -7.3 83 83 SW 7 11 30.31 1026 10 16 N/A
6:15 am 06:15 Clear 23 -5.2 19 -7.5 84 84 SSW 7 11 30.31 1026 10 16 N/A
6:35 am 06:35 Clear 23 -5.1 18 -7.6 83 83 SSW 7 11 30.31 1026 10 16 N/A
6:55 am 06:55 Clear 22 -5.5 18 -7.9 83 83 SSW 8 13 30.31 1026 10 16 N/A
7:15 am 07:15 Clear 22 -5.6 18 -7.7 85 85 SSW 8 13 30.32 1027 10 16 N/A
7:35 am 07:35 Sunny 22 -5.5 18 -7.7 85 85 SSW 8 13 30.33 1027 10 16 N/A
7:55 am 07:55 Sunny 23 -5.1 19 -7.5 83 83 SSW 8 13 30.32 1027 10 16 N/A
8:15 am 08:15 Sunny 24 -4.4 19 -7 82 82 SSW 9 15 30.31 1026 10 16 N/A
8:35 am 08:35 Sunny 27 -2.9 22 -5.6 82 82 SSW 13 20 30.29 1026 10 16 N/A
8:55 am 08:55 Sunny 29 -1.8 23 -5.1 78 78 SSW 15 24 30.27 1025 10 16 N/A
9:15 am 09:15 Sunny 30 -0.9 24 -4.4 77 77 SW 12 19 30.26 1025 10 16 N/A
9:35 am 09:35 Sunny 32 undefined 24 -4.4 73 73 SW 14 22 30.26 1025 10 16 N/A
9:55 am 09:55 Sunny 33 0.4 25 -3.9 73 73 SW 16 26 30.24 1024 10 16 N/A
10:15 am 10:15 Sunny 35 1.4 26 -3.6 70 70 SW 17 28 30.22 1023 10 16 N/A
10:35 am 10:35 Sunny 37 2.5 26 -3.4 65 65 SSW 20 31 30.20 1023 10 16 N/A
10:55 am 10:55 Sunny 38 3.6 27 -3 62 62 SSW 22 35 30.18 1022 10 16 N/A
11:15 am 11:15 Sunny 40 4.5 26 -3.1 58 58 SSW 17 28 30.16 1021 10 16 N/A
11:35 am 11:35 Sunny 42 5.8 25 -4.1 49 49 SSW 20 31 30.13 1020 10 16 N/A
11:55 am 11:55 Sunny 44 6.5 23 -4.8 45 45 SSW 26 43 30.10 1019 10 16 N/A
12:15 pm 12:15 Sunny 45 7.1 23 -4.9 43 43 SSW 22 35 30.07 1018 10 16 N/A
12:35 pm 12:35 Sunny 46 7.7 22 -5.7 38 38 S 22 35 30.02 1017 10 16 N/A
12:55 pm 12:55 Sunny 46 8 23 -4.9 40 40 S 23 37 29.97 1015 10 16 N/A
1:15 pm 13:15 Sunny 48 8.7 21 -6 35 35 S 24 39 29.99 1016 10 16 N/A
1:35 pm 13:35 Sunny 49 9.4 20 -6.4 32 32 S 25 41 29.98 1015 10 16 N/A
1:55 pm 13:55 Sunny 49 9.6 21 -6.1 33 33 S 24 39 29.95 1014 10 16 N/A
2:15 pm 14:15 Sunny 49 9.6 21 -6 33 33 SSW 25 41 29.94 1014 10 16 N/A
2:35 pm 14:35 Sunny 50 9.8 20 -6.4 32 32 SSW 25 41 29.92 1013 10 16 N/A
2:55 pm 14:55 Sunny 50 10.1 21 -6.2 31 31 S 26 43 29.90 1013 10 16 N/A
3:15 pm 15:15 Sunny 51 10.3 21 -6.3 31 31 SSW 23 37 29.89 1012 10 16 N/A
3:35 pm 15:35 Sunny 51 10.5 21 -6 31 31 S 24 39 29.88 1012 10 16 N/A
3:55 pm 15:55 Sunny 51 10.3 21 -6 32 32 S 24 39 29.87 1012 10 16 N/A
4:15 pm 16:15 Sunny 51 10.4 21 -6 31 31 SSW 22 35 29.87 1011 10 16 N/A
4:35 pm 16:35 Sunny 50 10.2 21 -6.1 31 31 S 20 31 29.86 1011 10 16 N/A
4:55 pm 16:55 Sunny 49 9.5 22 -5.8 34 34 S 16 26 29.86 1011 10 16 N/A
5:15 pm 17:15 Sunny 47 8.6 22 -5.7 36 36 S 20 31 29.85 1011 10 16 N/A
5:35 pm 17:35 Clear 46 7.9 22 -5.6 38 38 S 16 26 29.85 1011 10 16 N/A
5:55 pm 17:55 Clear 45 7 23 -5.1 42 42 S 16 26 29.85 1011 10 16 N/A
6:15 pm 18:15 Clear 43 6.1 24 -4.7 46 46 S 16 26 29.85 1011 10 16 N/A
6:35 pm 18:35 Clear 42 5.6 24 -4.7 48 48 S 13 20 29.85 1011 10 16 N/A
6:55 pm 18:55 Clear 42 5.5 23 -5 47 47 S 15 24 29.85 1011 10 16 N/A
7:15 pm 19:15 Clear 40 4.7 23 -5 50 50 S 13 20 29.86 1011 10 16 N/A
7:35 pm 19:35 Clear 39 4 23 -5 52 52 S 10 17 29.87 1011 10 16 N/A
7:55 pm 19:55 Clear 38 3.3 23 -5 55 55 SSE 9 15 29.87 1012 10 16 N/A
8:15 pm 20:15 Clear 38 3.2 23 -4.9 56 56 SSE 8 13 29.86 1011 10 16 N/A
8:35 pm 20:35 Clear 35 1.8 23 -5 61 61 SSE 12 19 29.87 1011 10 16 N/A
8:55 pm 20:55 Clear 35 1.7 23 -5 61 61 S 12 19 29.87 1011 10 16 N/A
9:15 pm 21:15 Clear 35 1.5 23 -5 62 62 S 12 19 29.85 1011 10 16 N/A
9:35 pm 21:35 Clear 33 0.7 23 -5.2 65 65 SSE 10 17 29.86 1011 10 16 N/A
9:55 pm 21:55 Clear 33 0.5 23 -5.2 66 66 SSE 10 17 29.85 1011 10 16 N/A
10:15 pm 22:15 Clear 33 0.3 23 -5 68 68 SSE 12 19 29.84 1011 10 16 N/A
10:35 pm 22:35 Clear 33 0.3 24 -4.6 70 70 SSE 10 17 29.82 1010 10 16 N/A
10:55 pm 22:55 Clear 33 0.5 24 -4.5 69 69 SSE 10 17 29.81 1009 10 16 N/A
11:15 pm 23:15 Clear 33 0.5 24 -4.3 71 71 SSE 12 19 29.80 1009 10 16 N/A
11:35 pm 23:35 Clear 33 0.7 25 -4.1 71 71 S 13 20 29.79 1009 10 16 N/A
11:55 pm 23:55 Clear 34 1 25 -3.8 71 71 S 18 30 29.76 1008 10 16 N/A

Powered by AerisWeather